This demonstration page uses our WeatherBlox Daily Observations layout. Learn more.

Left ArrowRight Arrow

41.86663, -103.66717

Hourly Observations for April 7, 2018

Temp ( °F °C ) Dew Point ( °F °C ) Humidity (%) Winds ( mph kmh ) Pressure ( in mb ) Visibility ( mi km ) Precip ( " mm )
12:53 am 00:53 Mostly Cloudy 14 -10 11 -11.7 88 88 E 7 11 30.32 1027 10 16 N/A
1:16 am 01:16 Cloudy 16 -9 12 -11 86 86 ESE 9 15 30.39 1029 10 16 N/A
1:53 am 01:53 Cloudy 17 -8.3 14 -10 88 88 ESE 10 17 30.29 1026 10 16 N/A
2:27 am 02:27 Cloudy 17 -8.3 14 -10 88 88 ESE 13 20 30.39 1029 10 16 N/A
2:53 am 02:53 Cloudy 17 -8.3 14 -10 88 88 ESE 14 22 30.24 1024 10 16 N/A
3:28 am 03:28 Cloudy 18 -8 14 -10 86 86 ESE 14 22 30.36 1028 10 16 N/A
3:53 am 03:53 Cloudy 17 -8.3 14 -10 88 88 ESE 13 20 30.22 1023 10 16 N/A
4:53 am 04:53 Cloudy 17 -8.3 14 -10 88 88 ESE 14 22 30.21 1023 10 16 N/A
5:53 am 05:53 Cloudy 18 -7.8 15 -9.4 88 88 E 13 20 30.20 1023 10 16 N/A
6:53 am 06:53 Cloudy 19 -7.2 15 -9.4 84 84 ESE 14 22 30.19 1022 10 16 N/A
7:53 am 07:53 Cloudy 20 -6.7 17 -8.3 89 89 ESE 12 19 30.19 1022 10 16 N/A
8:53 am 08:53 Cloudy 22 -5.6 18 -7.8 85 85 ESE 13 20 30.16 1021 10 16 N/A
9:53 am 09:53 Partly Cloudy 26 -3.3 20 -6.7 78 78 ESE 14 22 30.13 1020 10 16 N/A
10:53 am 10:53 Sunny 29 -1.7 23 -5 78 78 ESE 13 20 30.11 1020 10 16 N/A
11:53 am 11:53 Sunny 34 1.1 25 -3.9 70 70 S 12 19 30.07 1018 10 16 N/A
12:53 pm 12:53 Sunny 36 2.2 27 -2.8 70 70 SSE 13 20 30.03 1017 10 16 N/A
1:53 pm 13:53 Sunny 41 5 31 -0.6 67 67 S 10 17 29.96 1015 10 16 N/A
2:53 pm 14:53 Sunny 45 7.2 34 1.1 66 66 SE 10 17 29.92 1013 10 16 N/A
3:53 pm 15:53 Sunny 48 8.9 35 1.7 61 61 ESE 15 24 29.86 1011 10 16 N/A
4:53 pm 16:53 Sunny 49 9.4 36 2.2 61 61 SE 13 20 29.84 1010 10 16 N/A
5:53 pm 17:53 Mostly Sunny 49 9.4 36 2.2 61 61 SSE 14 22 29.80 1009 10 16 N/A
6:53 pm 18:53 Sunny 48 8.9 36 2.2 63 63 SSE 14 22 29.76 1008 10 16 N/A
7:53 pm 19:53 Partly Cloudy 44 6.7 36 2.2 73 73 SE 15 24 29.72 1007 10 16 N/A
8:53 pm 20:53 Mostly Clear 43 6.1 35 1.7 74 74 ESE 16 26 29.68 1005 10 16 N/A
9:53 pm 21:53 Clear 41 5 34 1.1 76 76 ESE 16 26 29.65 1004 10 16 N/A
10:53 pm 22:53 Clear 40 4.4 34 1.1 79 79 E 13 20 29.59 1002 10 16 N/A
11:53 pm 23:53 Clear 40 4.4 34 1.1 79 79 E 13 20 29.55 1001 10 16 N/A

Powered by AerisWeather